Location: Byszew
(52.1813°N, 19.2693°E)
Time: 14:32:56
(UTC+00:00)

SPOT 1/Viking Rocket - Pass Details

Date: 03 March 2021
Orbit: 778 x 793 km, 98.4° (Epoch: 13 April)

Event Time Altitude Azimuth Distance (km) Brightness Sun altitude
Exits shadow 18:49:17 36° 55° (NE) 1,222 4.2 -22.4°
Drops below altitude 10° 18:53:41 10° 358° (N) 2,354 6.3 -23.1°
Sets 18:56:10 0° 350° (N) 3,289 7.2 -23.4°
